Theta_e
320 319 320 320 320 320 320 320 319 319 318 316 316 316 312 309 313 312 312 309 311 308 306 304 309 311 311 310 309 310 311 312 314 315 315 312 312 312 313 313 315 316 315 317 316
321 321 321 321 320 320 320 320 320 320 318 317 317 317 316 309 312 314 311 307 306 306 305 307 309 309 307 310 309 309 310 313 313 314 312 311 309 310 312 311 313 311 312 312 314
322 322 321 321 321 321 321 320 320 319 319 318 318 317 317 312 314 315 306 306 306 308 311 314 314 310 309 308 308 308 308 310 312 311 311 310 308 310 310 311 312 310 309 309 314
323 322 321 321 321 321 321 320 320 319 317 318 319 317 316 314 320 313 306 305 305 306 306 311 307 309 309 308 308 308 308 309 310 310 308 308 309 308 310 310 310 308 308 309 310
324 323 322 322 321 321 320 320 319 319 317 317 315 315 311 310 314 311 308 309 308 307 311 310 307 306 307 306 306 307 308 308 307 307 306 308 308 309 308 307 307 307 308 307 310
325 324 323 323 322 321 321 322 322 321 318 315 311 305 306 315 312 309 307 308 308 310 310 309 307 306 306 308 309 308 307 306 307 307 307 308 307 307 308 308 307 306 307 307 309
323 324 324 324 324 323 322 321 319 320 318 312 305 302 305 314 315 311 310 308 308 307 305 306 307 308 308 308 308 307 307 307 308 308 307 308 308 308 307 306 307 305 306 309 311
322 321 323 324 323 323 322 320 319 318 317 313 305 304 308 316 315 314 314 310 308 308 307 307 307 307 308 307 307 307 307 308 309 309 309 307 309 307 306 307 309 307 308 309 310
313 316 322 322 323 322 322 319 318 317 316 312 307 308 313 314 310 310 310 307 308 307 306 307 307 307 306 306 304 306 307 309 311 311 310 308 307 307 306 308 308 307 306 309 307
313 314 319 320 321 321 319 317 316 315 311 306 308 310 311 316 312 308 309 308 305 306 306 307 304 305 303 303 306 306 308 308 309 309 309 309 308 306 306 306 306 304 306 307 305
311 317 317 318 318 320 317 315 309 309 304 314 314 314 314 314 310 309 310 307 308 306 306 307 305 305 305 304 305 306 306 307 307 308 309 308 306 307 307 305 307 308 306 305 303
313 317 317 316 318 319 315 311 312 307 312 310 311 312 314 315 316 314 311 308 308 306 304 304 306 307 307 307 307 308 308 309 307 309 308 307 305 305 306 308 306 304 303 301 300
313 316 316 315 317 315 314 315 307 307 310 311 312 314 315 314 316 316 312 309 309 309 308 304 306 308 308 308 309 309 308 308 308 307 306 305 305 306 307 307 305 302 300 299 298
314 314 316 315 314 313 311 317 309 307 309 311 314 314 315 315 317 315 314 310 307 309 307 307 308 309 309 310 308 307 307 307 306 304 304 304 304 304 307 306 304 301 298 297 295
314 315 316 314 312 310 313 315 310 308 304 307 311 311 313 315 309 307 311 309 312 308 308 308 308 307 307 307 307 307 306 306 305 304 304 303 303 303 307 307 304 300 298 296 294
309 313 315 313 311 314 314 313 307 311 312 312 306 307 310 309 307 305 307 305 305 307 306 307 306 305 305 306 306 306 305 304 303 303 305 305 303 303 308 306 303 300 298 296 294
305 313 313 312 311 313 312 307 315 315 311 311 307 307 308 308 308 304 304 304 303 304 304 305 305 304 305 304 305 305 303 305 306 307 307 305 305 309 305 303 301 300 297 295 293
305 310 311 312 313 312 307 312 316 313 313 311 308 307 307 307 307 306 303 303 302 303 303 305 306 306 306 305 305 304 304 306 310 310 306 305 305 308 303 302 301 299 296 294 292
305 307 308 310 309 307 308 313 311 311 311 311 310 308 308 308 307 306 304 303 304 302 304 306 306 305 304 305 305 305 304 304 305 304 305 304 308 305 303 302 301 299 296 293 291
305 307 307 310 308 306 311 313 313 311 311 312 314 311 309 308 308 306 305 306 305 305 304 306 306 305 305 304 304 304 303 304 305 308 307 304 305 307 304 303 300 298 295 292 290
304 306 304 308 305 306 311 312 312 310 311 313 314 315 311 308 307 306 308 307 306 304 303 303 303 304 303 303 303 303 302 303 304 305 305 304 299 297 298 299 298 296 294 292 289
303 304 303 304 305 301 307 309 311 312 311 311 313 313 309 310 309 308 308 308 304 302 302 303 302 303 303 303 303 303 303 304 304 305 303 304 303 301 299 298 296 295 294 292 289
303 301 302 303 308 305 305 308 309 312 311 312 315 313 309 307 308 309 306 304 303 302 303 302 302 302 303 302 305 306 307 308 307 303 304 301 300 300 299 296 295 294 292 290 289
299 302 300 301 301 305 305 308 309 309 310 311 313 312 309 306 308 307 304 305 303 303 306 303 302 302 304 303 303 302 303 302 307 304 306 302 297 302 301 297 295 293 291 289 288
300 301 300 303 302 305 304 306 308 310 310 311 313 312 308 307 308 306 305 303 303 304 301 300 302 298 301 303 303 302 302 302 301 303 307 300 302 298 299 296 294 291 290 289 287
299 300 298 298 302 304 306 307 307 308 309 311 312 313 310 307 306 306 303 302 302 302 302 300 300 294 293 302 303 302 302 301 302 302 300 299 303 297 295 292 292 291 289 288 286
299 301 299 300 302 304 305 304 307 308 309 308 309 309 306 304 303 302 303 302 303 302 301 299 297 294 298 303 305 306 303 301 299 301 302 303 302 295 295 294 291 289 288 286 284
Wind_Speed
8 8 8 8 8 9 10 13 16 18 19 20 22 24 28 31 27 5 2 4 5 11 10 8 7 5 4 3 2 3 2 2 4 1 4 3 5 7 3 3 3 4 4 3 7
11 10 10 9 9 9 11 12 15 17 19 21 22 23 26 28 16 5 4 5 7 6 5 7 6 6 2 3 1 3 4 7 6 3 6 6 3 3 4 9 6 8 11 15 6
14 13 12 12 11 10 11 13 15 16 18 21 23 25 25 19 4 1 1 4 7 5 6 9 12 4 2 1 2 2 5 6 9 9 5 4 5 2 2 0 2 5 9 10 7
18 16 15 15 14 12 12 13 14 16 18 21 23 24 22 8 2 2 3 5 6 6 8 10 6 4 2 3 1 4 6 4 6 4 4 5 4 5 4 6 5 6 5 3 8
21 20 18 16 17 15 13 13 14 15 17 19 21 21 11 5 6 3 5 6 7 6 6 4 4 3 3 5 7 5 3 7 7 6 6 3 5 5 6 9 7 7 7 7 6
24 23 21 19 18 18 16 16 16 16 16 17 18 16 3 4 3 4 5 7 8 6 9 8 5 8 5 4 1 5 8 8 8 11 4 5 5 1 7 7 8 6 7 6 4
20 22 18 16 16 18 17 18 17 15 15 14 14 10 2 11 5 6 6 9 9 11 4 11 10 5 5 7 2 7 6 8 13 5 7 2 4 8 15 1 7 7 5 2 8
15 18 16 15 16 14 16 19 16 13 14 12 11 4 7 9 11 14 12 15 13 13 13 13 10 3 2 4 7 6 3 1 6 1 7 8 6 9 7 5 2 3 7 12 14
19 19 20 15 15 14 15 16 13 13 13 12 5 4 8 9 8 6 10 7 5 10 13 14 4 2 4 2 4 3 3 4 7 4 2 3 3 6 7 4 4 4 3 13 14
20 19 21 17 14 11 15 12 10 11 5 3 5 3 7 5 6 6 9 9 6 3 1 2 3 1 2 3 4 4 3 3 5 6 3 3 3 6 7 6 3 6 13 13 14
18 15 15 14 13 13 13 4 3 2 4 9 5 5 1 4 9 7 9 8 4 2 4 2 3 8 10 9 7 6 9 9 6 6 6 7 2 2 4 10 13 13 12 12 13
12 13 13 12 13 12 16 4 5 1 7 18 18 15 24 13 6 5 8 5 6 6 4 2 6 13 9 10 8 10 13 11 5 4 5 5 11 4 9 8 13 14 13 11 11
12 13 11 12 11 17 15 12 4 1 3 6 13 9 11 16 12 17 9 6 6 7 6 8 8 5 9 11 12 12 10 5 3 4 4 4 9 1 10 15 16 14 11 13 12
9 12 14 15 13 14 7 18 4 2 3 6 6 7 9 8 5 15 17 10 6 13 4 7 11 16 15 10 7 4 3 0 3 5 3 4 6 6 9 12 13 11 11 10 12
8 13 18 21 12 11 13 14 10 2 3 4 5 9 6 8 4 2 8 5 14 6 6 8 3 1 3 5 2 3 1 3 2 2 4 2 2 6 9 7 8 8 10 9 9
8 12 21 20 11 13 15 19 8 4 9 4 3 5 6 4 3 3 4 4 4 4 4 9 2 4 6 4 4 4 4 6 3 3 4 4 6 5 4 2 5 7 9 10 10
7 13 22 19 6 18 20 11 4 6 4 6 4 6 4 5 4 4 5 4 5 4 3 4 6 9 5 5 4 3 5 3 4 1 6 3 3 1 5 7 7 7 7 7 8
6 15 25 17 12 23 20 3 7 8 8 4 5 5 7 6 6 8 6 4 5 3 2 3 5 2 2 3 7 5 8 5 6 3 4 7 5 3 6 7 7 8 7 8 8
7 13 10 20 16 25 7 5 8 6 5 4 2 4 5 6 6 5 9 8 8 9 8 5 4 1 4 2 4 1 1 4 1 0 3 4 2 4 6 4 4 5 7 9 8
8 9 7 15 18 15 5 10 6 4 5 4 2 7 10 7 7 9 9 6 6 9 7 4 2 3 1 3 3 5 4 1 2 4 8 4 4 4 5 1 3 5 6 6 8
8 3 9 17 20 3 6 6 10 7 5 1 1 4 3 5 7 6 9 2 6 4 7 4 4 3 2 3 4 2 1 1 3 4 4 3 5 4 7 4 3 4 5 4 8
7 4 14 30 5 2 6 8 5 8 4 7 3 4 5 3 6 7 9 1 7 8 8 2 4 2 6 5 4 3 4 5 5 6 4 6 9 2 6 5 5 4 5 7 6
3 3 11 6 7 7 3 13 4 3 12 4 4 6 6 3 3 2 4 4 5 4 8 6 1 2 7 5 3 4 0 2 3 2 7 6 6 5 5 6 5 5 4 4 6
3 3 1 2 1 15 10 11 13 7 11 5 3 4 3 4 3 2 2 4 4 3 6 8 4 6 7 4 3 3 5 5 3 2 3 6 4 10 10 9 6 4 4 3 4
4 4 5 8 9 16 10 6 15 12 10 4 6 9 6 3 5 3 2 2 5 3 4 5 5 3 3 4 4 5 11 13 8 12 6 5 7 7 12 9 7 5 4 3 4
5 4 1 3 12 16 13 14 15 14 8 7 13 8 8 7 10 8 9 4 5 2 3 1 2 3 4 7 8 12 17 15 16 11 6 4 6 5 8 10 7 6 6 4 4
15 5 4 8 12 12 18 26 16 6 6 17 8 5 9 9 5 5 6 8 9 8 5 5 4 3 4 4 7 8 10 11 4 7 7 9 6 14 11 11 9 8 7 5 4
Wind_Direction
278 288 299 310 317 332 337 342 344 348 347 345 347 348 345 339 342 1 336 336 308 307 311 312 300 293 300 279 170 106 66 206 255 228 296 335 15 334 281 355 356 31 96 150 108
272 277 284 291 300 312 318 328 336 342 345 342 343 344 346 338 338 321 336 350 7 10 20 356 320 336 323 275 319 119 158 222 207 221 270 292 9 267 24 341 353 348 358 11 139
267 271 275 279 287 297 307 316 324 333 341 339 341 340 343 337 325 264 1 8 6 6 332 314 296 265 228 22 227 245 207 230 265 251 220 253 293 268 41 152 197 304 318 343 350
261 261 265 272 277 284 292 303 315 323 330 334 336 337 341 346 320 340 321 335 326 318 326 340 349 312 301 283 339 314 264 230 278 331 349 293 285 321 199 240 223 246 261 327 302
258 257 258 262 269 272 278 288 298 311 322 332 334 341 357 349 253 304 347 347 343 331 319 338 328 8 297 303 321 204 256 305 292 271 270 267 283 268 270 265 286 295 313 313 308
253 251 251 255 260 266 271 281 287 298 313 326 336 346 23 301 319 13 344 329 315 312 313 314 299 295 260 298 324 312 318 310 298 296 266 257 277 58 266 279 316 264 247 277 349
265 251 245 254 257 265 269 272 279 291 304 317 333 353 308 240 232 290 272 270 296 286 293 309 327 6 343 317 352 308 312 332 285 288 290 89 312 258 264 334 279 285 216 123 89
251 259 243 251 255 257 261 265 271 280 290 305 320 14 257 266 273 264 260 278 258 265 280 295 316 297 259 313 347 327 310 262 291 312 269 130 275 278 268 229 190 157 180 89 64
247 256 263 248 252 265 253 258 265 270 282 301 296 98 264 295 261 242 215 235 272 268 263 274 321 220 346 35 347 278 253 239 304 322 322 103 319 324 351 11 272 221 202 87 73
244 239 244 244 237 254 244 236 256 276 319 239 268 17 257 243 211 213 202 217 233 287 33 227 47 254 21 112 230 243 247 294 272 299 31 305 235 324 322 9 333 352 90 73 67
230 233 229 229 231 229 208 165 221 261 214 208 198 244 291 205 157 205 201 191 215 114 196 220 125 228 226 215 231 276 279 269 255 266 339 298 245 261 324 34 48 62 65 63 55
230 220 218 213 215 215 184 154 245 89 288 238 250 243 260 277 279 238 227 165 164 219 166 318 230 241 236 250 237 249 262 265 256 283 316 313 304 158 82 67 79 71 56 48 38
220 209 203 201 209 187 184 202 174 249 269 250 222 228 230 205 234 249 185 185 181 215 225 202 237 277 228 253 256 263 250 267 281 312 319 323 289 55 76 91 78 67 63 50 35
219 198 198 190 171 188 192 206 188 192 298 265 220 237 183 180 229 222 206 176 193 230 199 247 242 232 255 250 223 259 274 133 47 45 290 72 290 265 105 87 68 62 54 43 29
212 200 205 189 157 174 207 196 178 77 292 229 167 147 170 163 146 80 191 160 214 187 156 233 315 4 267 237 123 178 108 70 73 64 314 125 140 276 125 85 67 58 56 48 35
205 208 202 176 170 196 194 161 136 79 244 267 142 160 123 153 152 108 110 66 136 188 247 250 269 277 228 281 201 165 87 32 40 113 263 267 179 277 30 80 91 64 50 42 23
206 202 201 179 183 170 161 139 128 201 283 194 182 168 152 163 152 144 151 156 161 137 262 344 257 261 221 256 213 123 75 351 321 358 233 26 352 360 93 66 82 66 56 41 22
192 208 197 193 192 174 157 119 206 201 234 9 128 128 181 161 212 178 142 187 255 129 78 180 314 229 296 184 197 190 156 167 232 228 271 314 247 213 104 78 77 82 66 39 22
175 200 206 205 182 169 145 209 212 187 182 281 144 163 238 216 167 147 180 191 200 170 180 194 250 267 94 107 111 189 136 195 182 136 262 232 90 187 138 76 51 42 44 33 15
174 175 200 197 189 164 197 220 235 205 328 27 278 201 187 208 181 176 176 200 208 190 161 221 282 255 37 84 21 149 169 60 359 278 262 238 218 223 188 212 16 39 45 23 14
166 175 180 180 153 178 195 231 244 254 291 310 318 303 276 184 203 200 194 197 152 122 131 135 140 261 57 146 179 10 283 188 190 179 238 291 261 214 185 176 118 66 82 46 22
169 191 174 152 150 173 190 204 228 254 230 247 287 206 252 296 213 200 199 149 148 148 144 142 142 209 229 276 286 202 230 201 207 241 238 239 260 133 156 144 115 69 30 26 33
175 130 198 166 183 204 237 229 232 270 225 242 229 195 215 202 325 164 98 358 71 97 153 175 141 17 335 356 29 79 206 183 224 137 214 224 259 166 148 121 105 89 55 22 12
143 145 242 136 285 208 195 215 221 204 254 255 260 223 250 200 190 164 137 26 60 76 105 87 147 171 226 205 155 250 245 263 196 195 243 217 222 195 185 168 138 115 98 59 25
193 193 177 186 209 205 187 227 213 225 210 215 220 222 196 205 170 131 41 58 44 110 58 105 193 148 246 239 250 233 255 266 243 245 220 249 210 205 186 160 142 146 130 76 22
170 170 224 199 198 200 200 214 232 212 221 200 228 223 221 199 196 179 159 173 184 162 117 41 208 95 311 263 250 263 260 251 244 246 241 203 231 148 116 115 140 147 124 103 43
206 225 159 169 184 192 207 217 218 180 230 230 235 206 216 208 155 122 141 153 161 148 153 143 124 81 270 307 299 279 242 224 219 219 220 229 204 153 151 155 157 146 129 111 70